Find GRUS-1B

NORAD ID: 47934 Int'l Des: 2021-022 Owner: AXEL Country: J operational
LEOCIRCULARRETROGRADESSO

实时位置

正在加载3D地球...

关于 GRUS-1B

正在加载描述...

即将过境

Passes for default location (London). Set your location on the main map for personalized predictions.

高度历史

Loading altitude history...

两行轨道根数

1 47934U 21022C 26132.66282646 .00000170 00000-0 18730-4 0 9999
2 47934 97.5424 17.0224 0017146 79.3447 280.9706 14.98893672280570
Epoch: May 12, 2026 • Age: 3 hours

当前状态

高度 568.2 km
速度 7.59 km/s
星下点 52.82°N, 153.64°W
发射日期 Mar 22, 2021
运行时间 5.1 years
类型 other

技术详情

分类 Payload
质量 80.00 kg
干质量 80.00 kg
总质量 80.00 kg
长度 0.50 m
直径 0.50 m
跨度 0.50 m
形状 Box
制造商 AXEL
平台类型 GRUS
阶段状态 In Orbit
所有者/国家 AXEL/J

Most Searched